{"data":{"norad_id":65097,"intl_designator":"2025-167V","name":"STARLINK-34741","alt_names":[],"object_type":"PAYLOAD","status":"ACTIVE","operator":null,"country":"US","launch_date":"2025-08-04","launch_site_code":"AFETR","launch_vehicle":null,"mission":null,"orbit_class":"UNKNOWN","rcs_meters":null,"size_class":null,"mass_kg":null,"dimensions":null,"purposes":["comms"],"wikipedia_slug":null,"has_3d_model":false,"image_url":null,"decayed_at":null,"tle_current":{"epoch":"2026-05-25T02:29:07.971072Z","epoch_age_seconds":76180,"freshness":"FRESH","line1":"1 65097U 25167V   26145.10356448  .00040585  00000+0  93624-3 0  9995","line2":"2 65097  53.1602  29.2701 0001090  85.4896 274.6234 15.42188897 45210","mean_motion":15.42188897,"eccentricity":0.000109,"inclination_deg":53.1602,"raan_deg":29.2701,"arg_perigee_deg":85.4896,"mean_anomaly_deg":274.6234,"bstar":0.00093624,"rev_number":4521,"period_min":93.373775599164,"perigee_km":438.9073473082,"apogee_km":440.39362498018,"semimajor_km":6817.7874861442,"source":"CELESTRAK","updated_at":"2026-05-25T13:38:20.686386Z"}}}